Location: Unspecified
(0.0000°N, 0.0000°E)
Time: 12:45:40
(UTC+00:00)

CZ-3B DEB - Pass Details

Date: 23 February 2026
Orbit: 716 x 41326 km, 26.5° (Epoch: 4 March)

Event Time Altitude Azimuth Distance (km) Brightness Sun altitude
Exits shadow 04:16:10 22° 262° (W) 15,261 ? -28.8°
Maximum altitude 05:29:07 37° 244° (WSW) 27,524 ? -10.9°
Drops below altitude 10° 10:05:35 10° 242° (WSW) 46,001 ? 56.8°
Sets 11:29:33 0° 243° (WSW) 44,281 ? 75.4°
